GW1492 Weather Reports


Display with metric or nautical units.
time (UTC)temp
F
wind
direction
speed
MPH
gust
MPH
rain 1hr
in
rain 24hr
in
rain mn
in
humidity
%
barometer
mb
20260906090908 68 184 0.0 0.0 0.00 0.00 0.00 95 1015.9
20260906090002 68 173 0.0 0.0 0.00 0.00 0.00 95 1016.2
20260906085530 68 75 0.0 0.0 0.00 0.00 0.00 95 1016.2
20260906085113 68 357 0.0 0.0 0.00 0.00 0.00 95 1016.2
20260906084642 68 357 0.0 0.0 0.00 0.00 0.00 95 1016.2
20260906084212 68 226 0.0 0.0 0.00 0.00 0.00 95 1016.2
20260906083739 68 114 0.0 0.0 0.00 0.00 0.00 95 1015.9
20260906083323 68 160 0.0 0.0 0.00 0.00 0.00 95 1015.9
20260906082904 68 71 0.0 1.0 0.00 0.00 0.00 95 1016.2
20260906082433 68 78 1.0 2.0 0.00 0.00 0.00 94 1016.2
20260906082002 68 133 2.0 2.0 0.00 0.00 0.00 94 1016.2
20260906081515 68 213 0.0 0.0 0.00 0.00 0.00 94 1015.9
20260906081044 69 119 0.0 0.0 0.00 0.00 0.00 94 1015.9
20260906080614 69 99 0.0 0.0 0.00 0.00 0.00 94 1015.9
20260906080144 69 340 0.0 1.0 0.00 0.00 0.00 94 1016.2
20260906075726 68 317 0.0 0.0 0.00 0.00 0.00 94 1016.2
20260906074837 69 343 0.0 1.0 0.00 0.00 0.00 94 1016.2
20260906074422 68 341 1.0 2.0 0.00 0.00 0.00 94 1016.2
20260906074004 68 329 1.0 2.0 0.00 0.00 0.00 94 1016.2
20260906073533 68 206 0.0 0.0 0.00 0.00 0.00 94 1016.5
20260906073116 68 264 0.0 0.0 0.00 0.00 0.00 94 1016.2
20260906072227 68 338 0.0 1.0 0.00 0.00 0.00 94 1016.2
20260906071756 68 167 1.0 2.0 0.00 0.00 0.00 94 1016.2
20260906071340 68 165 0.0 0.0 0.00 0.00 0.00 94 1016.2
20260906070422 68 159 0.0 0.0 0.00 0.00 0.00 94 1016.2
20260906065518 68 196 0.0 0.0 0.00 0.00 0.00 94 1016.2
20260906064630 68 172 0.0 0.0 0.00 0.00 0.00 94 1016.2
20260906063725 69 184 0.0 0.0 0.00 0.00 0.00 94 1016.2
20260906063307 68 346 0.0 0.0 0.00 0.00 0.00 93 1016.2
20260906062851 68 181 0.0 0.0 0.00 0.00 0.00 93 1016.2
20260906062436 68 182 0.0 0.0 0.00 0.00 0.00 93 1016.2
20260906062002 69 334 0.0 0.0 0.00 0.00 0.00 93 1016.2
20260906061531 69 148 0.0 0.0 0.00 0.00 0.00 93 1016.2
20260906061114 69 225 0.0 0.0 0.00 0.00 0.00 93 1016.5
20260906060657 69 321 0.0 0.0 0.00 0.00 0.00 93 1016.5
20260906060242 69 309 0.0 0.0 0.00 0.00 0.00 93 1016.5
20260906055825 69 88 0.0 0.0 0.00 0.00 0.00 93 1016.5
20260906055410 69 76 0.0 0.0 0.00 0.00 0.00 93 1016.5
20260906054954 69 46 0.0 0.0 0.00 0.00 0.00 93 1016.9
20260906054053 69 326 0.0 0.0 0.00 0.00 0.00 92 1016.9
20260906053639 69 345 0.0 0.0 0.00 0.00 0.00 92 1017.2
20260906053208 69 351 0.0 0.0 0.00 0.00 0.00 92 1017.2
20260906052737 69 357 0.0 0.0 0.00 0.00 0.00 92 1016.9
20260906052306 69 354 0.0 0.0 0.00 0.00 0.00 92 1016.9
20260906051834 69 339 0.0 0.0 0.00 0.00 0.00 92 1016.9
20260906050918 69 350 0.0 0.0 0.00 0.00 0.00 94 1016.9
20260906050503 69 349 0.0 0.0 0.00 0.00 0.00 94 1016.9
20260906050033 69 346 0.0 0.0 0.00 0.00 0.00 94 1017.2
20260906045616 68 351 0.0 0.0 0.00 0.00 0.00 94 1017.2
20260906045159 68 75 0.0 0.0 0.00 0.00 0.00 94 1016.9
20260906044743 68 341 0.0 0.0 0.00 0.00 0.00 94 1016.9
20260906044312 68 62 0.0 0.0 0.00 0.00 0.00 94 1016.9
20260906043840 68 338 0.0 0.0 0.00 0.00 0.00 94 1016.9
20260906043410 68 338 0.0 0.0 0.00 0.00 0.00 94 1016.9
20260906042509 68 142 0.0 0.0 0.00 0.00 0.00 94 1016.9
20260906042054 68 121 0.0 0.0 0.00 0.00 0.00 94 1016.9
20260906041622 68 152 0.0 0.0 0.00 0.00 0.00 94 1016.9
20260906041136 68 153 0.0 0.0 0.00 0.00 0.00 94 1016.9
20260906040719 68 145 0.0 0.0 0.00 0.00 0.00 93 1017.2
20260906040302 68 109 0.0 0.0 0.00 0.00 0.00 93 1016.9
20260906035832 69 103 0.0 0.0 0.00 0.00 0.00 93 1017.2
20260906035415 68 129 0.0 1.0 0.00 0.00 0.00 93 1016.9
20260906034958 68 225 0.0 0.0 0.00 0.00 0.00 93 1016.9
20260906034545 69 221 0.0 0.0 0.00 0.00 0.00 93 1016.5
20260906033610 69 100 0.0 0.0 0.00 0.00 0.00 93 1017.2
20260906033156 70 107 4.0 22.0 0.00 0.00 0.00 93 1017.2
20260906032721 69 101 1.0 1.0 0.00 0.00 0.00 93 1017.2
20260906032250 69 90 1.0 2.0 0.00 0.00 0.00 94 1016.9
20260906031348 68 160 0.0 0.0 0.00 0.00 0.00 93 1016.9
20260906030444 69 128 0.0 0.0 0.00 0.00 0.00 93 1017.2
20260906030027 69 174 0.0 0.0 0.00 0.00 0.00 93 1017.2
20260906025556 69 222 0.0 0.0 0.00 0.00 0.00 93 1017.2
20260906025123 69 202 0.0 0.0 0.00 0.00 0.00 93 1017.2
20260906024650 69 235 0.0 0.0 0.00 0.00 0.00 93 1017.2
20260906024219 69 316 0.0 0.0 0.00 0.00 0.00 93 1017.2
20260906023746 69 334 0.0 0.0 0.00 0.00 0.00 93 1017.2
20260906022844 69 130 0.0 0.0 0.00 0.00 0.00 92 1017.2
20260906022412 70 149 0.0 0.0 0.00 0.00 0.00 92 1016.9
20260906021956 70 123 0.0 1.0 0.00 0.00 0.00 92 1017.2
20260906021526 70 330 0.0 0.0 0.00 0.00 0.00 92 1017.2
20260906021109 70 117 0.0 0.0 0.00 0.00 0.00 92 1016.9
20260906020621 70 319 0.0 0.0 0.00 0.00 0.00 92 1016.9
20260906020150 70 138 0.0 0.0 0.00 0.00 0.00 92 1017.2
20260906015305 70 320 0.0 0.0 0.00 0.00 0.00 91 1016.9
20260906014829 70 133 0.0 0.0 0.00 0.00 0.00 91 1017.2
20260906013941 70 290 0.0 0.0 0.00 0.00 0.00 90 1017.2
20260906013524 71 111 0.0 0.0 0.00 0.00 0.00 90 1017.2
20260906013051 71 93 0.0 0.0 0.00 0.00 0.00 90 1016.9
20260906011731 71 347 0.0 0.0 0.00 0.00 0.00 89 1016.9
20260906011245 71 18 0.0 0.0 0.00 0.00 0.00 88 1016.5
20260906010341 71 346 0.0 0.0 0.00 0.00 0.00 88 1016.9
20260906005924 71 347 0.0 0.0 0.00 0.00 0.00 89 1016.2
20260906005508 72 341 0.0 0.0 0.00 0.00 0.00 89 1016.5
20260906005036 71 70 0.0 0.0 0.00 0.00 0.00 88 1016.5
20260906004132 72 291 0.0 0.0 0.00 0.00 0.00 88 1016.2
20260906003714 72 309 0.0 0.0 0.00 0.00 0.00 88 1016.2
20260906003258 72 0 0.0 0.0 0.00 0.00 0.00 87 1016.2
20260906002811 72 357 0.0 0.0 0.00 0.00 0.00 88 1016.2
20260906002354 72 0 0.0 0.0 0.00 0.00 0.00 88 1016.2
20260906001937 72 347 0.0 0.0 0.00 0.00 0.00 88 1016.2
20260906001521 72 328 0.0 0.0 0.00 0.00 0.00 88 1016.2
20260906001049 72 329 0.0 0.0 0.00 0.00 0.00 88 1016.2
20260906000204 72 0 0.0 0.0 0.00 0.00 0.00 88 1016.2
20260905235744 73 346 0.0 0.0 0.00 0.00 0.00 87 1016.2
20260905235310 73 334 0.0 0.0 0.00 0.00 0.00 87 1016.2
20260905234839 73 331 0.0 0.0 0.00 0.00 0.00 87 1016.5
20260905234423 73 322 0.0 1.0 0.00 0.00 0.00 87 1016.2
20260905234007 73 333 1.0 2.0 0.00 0.00 0.00 87 1016.2
20260905233553 74 325 1.0 1.0 0.00 0.00 0.00 86 1016.2
20260905232654 74 338 1.0 2.0 0.00 0.00 0.00 86 1016.2
20260905232226 74 334 2.0 2.0 0.00 0.00 0.00 85 1016.5
20260905231756 74 135 0.0 0.0 0.00 0.00 0.00 85 1016.5
20260905230911 75 327 2.0 2.0 0.00 0.00 0.00 83 1016.2
20260905230441 76 324 2.0 3.0 0.00 0.00 0.00 83 1016.2
20260905230010 76 313 2.0 2.0 0.00 0.00 0.00 83 1016.2
20260905225055 75 337 2.0 3.0 0.00 0.00 0.00 83 1016.2
20260905224638 75 338 2.0 2.0 0.00 0.00 0.00 85 1016.2
20260905224220 75 323 2.0 2.0 0.00 0.00 0.00 85 1016.2
20260905223802 75 352 1.0 2.0 0.00 0.00 0.00 85 1016.2
20260905223333 76 321 2.0 2.0 0.00 0.00 0.00 84 1016.2
20260905222917 76 327 3.0 3.0 0.00 0.00 0.00 83 1016.2
20260905222503 76 334 3.0 3.0 0.00 0.00 0.00 84 1016.2
20260905222047 76 328 2.0 2.0 0.00 0.00 0.00 83 1016.2
20260905221632 76 331 2.0 2.0 0.00 0.00 0.00 83 1016.5
20260905220730 76 321 2.0 3.0 0.00 0.00 0.00 84 1016.2
20260905215838 75 321 2.0 3.0 0.00 0.00 0.00 84 1016.2
20260905214951 76 332 2.0 2.0 0.00 0.00 0.00 84 1016.2
20260905214521 76 330 3.0 4.0 0.00 0.00 0.00 82 1016.2
20260905214105 76 324 2.0 3.0 0.00 0.00 0.00 81 1016.2
20260905213636 76 322 3.0 3.0 0.00 0.00 0.00 81 1016.2
20260905212252 78 41 2.0 2.0 0.00 0.00 0.00 72 1016.5
20260905211407 76 310 1.0 2.0 0.00 0.00 0.00 85 1016.2
20260905210950 76 342 2.0 3.0 0.00 0.00 0.00 84 1016.2
20260905210536 76 335 2.0 2.0 0.00 0.00 0.00 84 1016.2
20260905210105 77 14 2.0 2.0 0.00 0.00 0.00 78 1016.2
20260905205617 76 252 1.0 2.0 0.00 0.00 0.00 82 1016.2
20260905204719 78 315 4.0 4.0 0.00 0.00 0.00 80 1016.2
20260905204301 78 117 1.0 2.0 0.00 0.00 0.00 76 1015.9
20260905203845 77 123 0.0 1.0 0.00 0.00 0.00 77 1016.2
20260905203430 76 359 2.0 2.0 0.00 0.00 0.00 82 1015.9
20260905203015 77 338 3.0 4.0 0.00 0.00 0.00 80 1016.2
20260905202601 78 118 2.0 2.0 0.00 0.00 0.00 75 1015.9
20260905202146 76 348 3.0 3.0 0.00 0.00 0.00 82 1015.9
20260905201732 78 343 3.0 3.0 0.00 0.00 0.00 80 1015.9
20260905201316 78 281 3.0 4.0 0.00 0.00 0.00 73 1015.9
20260905200846 78 64 2.0 2.0 0.00 0.00 0.00 76 1015.9
20260905200401 79 352 3.0 3.0 0.00 0.00 0.00 78 1015.9
20260905195946 78 124 4.0 4.0 0.00 0.00 0.00 76 1016.2
20260905195516 78 38 2.0 2.0 0.00 0.00 0.00 76 1016.2
20260905195100 78 166 2.0 3.0 0.00 0.00 0.00 77 1016.2
20260905194155 78 277 2.0 3.0 0.00 0.00 0.00 76 1016.2
20260905193708 78 334 4.0 5.0 0.00 0.00 0.00 76 1016.2
20260905193252 77 22 2.0 2.0 0.00 0.00 0.00 82 1016.2
20260905191933 75 95 2.0 2.0 0.00 0.00 0.00 84 1016.2
20260905191049 75 356 2.0 2.0 0.00 0.00 0.00 87 1016.5
20260905190617 75 337 2.0 2.0 0.00 0.00 0.00 87 1016.5
20260905185730 76 357 3.0 3.0 0.00 0.00 0.00 85 1016.9
20260905185314 76 354 2.0 2.0 0.00 0.00 0.00 86 1017.2
20260905184843 77 347 2.0 2.0 0.00 0.00 0.00 84 1017.2
20260905184429 78 351 1.0 2.0 0.00 0.00 0.00 83 1017.2
20260905183958 78 356 1.0 2.0 0.00 0.00 0.00 81 1017.2
20260905183527 78 351 2.0 2.0 0.00 0.00 0.00 82 1017.6
20260905183110 78 301 1.0 2.0 0.00 0.00 0.00 81 1017.6
20260905182652 78 308 2.0 3.0 0.00 0.00 0.00 81 1017.6
20260905182223 78 355 1.0 2.0 0.00 0.00 0.00 81 1017.6
20260905181805 77 326 2.0 3.0 0.00 0.00 0.00 82 1017.9
20260905180914 77 272 1.0 2.0 0.00 0.00 0.00 82 1017.9
20260905180012 78 69 0.0 1.0 0.00 0.00 0.00 82 1017.9
20260905175557 76 284 0.0 1.0 0.00 0.00 0.00 84 1017.9
20260905175143 77 30 0.0 0.0 0.00 0.00 0.00 85 1017.9
20260905174726 76 7 0.0 1.0 0.00 0.00 0.00 86 1018.2
20260905174257 76 19 0.0 1.0 0.00 0.00 0.00 86 1017.9
20260905173842 76 347 0.0 1.0 0.00 0.00 0.00 86 1017.9
20260905172955 73 187 0.0 1.0 0.00 0.00 0.00 90 1017.9
20260905172539 72 165 1.0 2.0 0.00 0.00 0.00 90 1018.2
20260905172109 71 210 2.0 2.0 0.00 0.00 0.00 91 1017.9
20260905171651 70 210 3.0 4.0 0.00 0.00 0.00 90 1017.9
20260905171238 71 183 1.0 2.0 0.00 0.00 0.00 92 1017.9
20260905170805 70 193 0.0 1.0 0.00 0.00 0.00 92 1017.9
20260905170335 70 147 1.0 2.0 0.00 0.00 0.00 93 1018.2
20260905165918 70 199 1.0 2.0 0.00 0.00 0.00 93 1018.6
20260905165501 70 237 0.0 1.0 0.00 0.00 0.00 94 1018.9
20260905165045 69 302 1.0 1.0 0.00 0.00 0.00 94 1018.6
20260905164629 68 311 1.0 2.0 0.00 0.00 0.00 94 1018.6
20260905164214 68 322 1.0 2.0 0.00 0.00 0.00 94 1018.6
20260905163742 68 330 1.0 2.0 0.00 0.00 0.00 94 1018.6
20260905163312 68 214 0.0 0.0 0.00 0.00 0.00 94 1018.9
20260905162840 68 291 0.0 0.0 0.00 0.00 0.00 94 1018.9
20260905161951 68 314 1.0 2.0 0.00 0.00 0.00 94 1018.6
20260905161536 68 217 0.0 0.0 0.00 0.00 0.00 94 1019.3
20260905160649 68 189 0.0 0.0 0.00 0.00 0.00 94 1019.6
20260905155332 67 112 0.0 0.0 0.00 0.00 0.00 94 1019.9
20260905154847 67 253 0.0 0.0 0.00 0.00 0.00 94 1019.9
20260905154417 67 293 0.0 0.0 0.00 0.00 0.00 93 1019.9
20260905153527 67 301 0.0 1.0 0.00 0.00 0.00 93 1019.9
20260905153111 67 329 1.0 2.0 0.00 0.00 0.00 93 1020.3
20260905152653 67 11 0.0 1.0 0.00 0.00 0.00 93 1020.9
20260905152236 67 356 1.0 2.0 0.00 0.00 0.00 92 1020.6
20260905151347 67 61 2.0 3.0 0.00 0.00 0.00 91 1020.9
20260905150930 68 50 0.0 0.0 0.00 0.00 0.00 89 1020.9
20260905150513 69 252 0.0 2.0 0.00 0.00 0.00 88 1020.9
20260905150057 71 339 5.0 8.0 0.00 0.00 0.00 83 1021.3
20260905145641 79 158 4.0 5.0 0.00 0.00 0.00 82 1020.6
20260905145225 80 164 0.0 1.0 0.00 0.00 0.00 80 1019.6
20260905144808 80 354 2.0 3.0 0.00 0.00 0.00 77 1018.6
20260905144352 81 300 2.0 3.0 0.00 0.00 0.00 76 1018.9
20260905143935 82 317 1.0 2.0 0.00 0.00 0.00 77 1018.6
20260905143504 80 313 2.0 3.0 0.00 0.00 0.00 79 1018.2
20260905143032 79 323 2.0 3.0 0.00 0.00 0.00 78 1018.2
20260905142615 80 308 2.0 2.0 0.00 0.00 0.00 78 1018.2
20260905142159 80 313 2.0 2.0 0.00 0.00 0.00 79 1017.9
20260905141740 79 308 1.0 2.0 0.00 0.00 0.00 79 1017.9
20260905141325 78 312 1.0 2.0 0.00 0.00 0.00 81 1017.9
20260905140838 78 327 2.0 3.0 0.00 0.00 0.00 82 1017.9
20260905140422 77 309 2.0 2.0 0.00 0.00 0.00 85 1018.2
20260905140005 77 316 2.0 2.0 0.00 0.00 0.00 85 1018.2
20260905135547 76 308 1.0 2.0 0.00 0.00 0.00 85 1018.2
20260905135130 76 316 2.0 3.0 0.00 0.00 0.00 85 1018.6
20260905134658 76 240 0.0 0.0 0.00 0.00 0.00 87 1018.6
20260905134242 75 312 1.0 2.0 0.00 0.00 0.00 87 1018.6
20260905132919 74 213 0.0 0.0 0.00 0.00 0.00 88 1018.2
20260905132448 74 318 1.0 2.0 0.00 0.00 0.00 87 1018.6
20260905132017 74 312 1.0 2.0 0.00 0.00 0.00 88 1018.6
20260905131546 73 313 1.0 2.0 0.00 0.00 0.00 88 1018.6
20260905131129 73 312 2.0 2.0 0.00 0.00 0.00 89 1018.9
20260905130713 73 320 0.0 0.0 0.00 0.00 0.00 89 1018.9
20260905125822 72 301 0.0 0.0 0.00 0.00 0.00 90 1018.6
20260905125404 72 320 1.0 2.0 0.00 0.00 0.00 90 1018.6
20260905124933 72 333 1.0 1.0 0.00 0.00 0.00 90 1018.9
20260905124501 72 334 1.0 1.0 0.00 0.00 0.00 90 1018.6
20260905124046 72 336 0.0 0.0 0.00 0.00 0.00 90 1018.9
20260905123616 72 11 0.0 0.0 0.00 0.00 0.00 90 1018.9
20260905123200 71 9 0.0 1.0 0.00 0.00 0.00 91 1018.6
20260905122743 71 4 0.0 0.0 0.00 0.00 0.00 91 1018.6
20260905121838 70 82 1.0 2.0 0.00 0.00 0.00 91 1018.6
20260905120507 70 102 1.0 2.0 0.00 0.00 0.00 92 1018.9
20260905120050 70 98 0.0 0.0 0.00 0.00 0.00 92 1018.6
20260905115604 70 75 0.0 1.0 0.00 0.00 0.00 92 1018.6
20260905115132 70 87 0.0 0.0 0.00 0.00 0.00 92 1018.6
20260905114715 70 347 0.0 1.0 0.00 0.00 0.00 92 1018.2
20260905114245 70 343 1.0 2.0 0.00 0.00 0.00 92 1018.6
20260905113830 70 342 2.0 2.0 0.00 0.00 0.00 92 1018.2
20260905112458 70 71 0.0 0.0 0.00 0.00 0.00 93 1018.2
20260905111614 70 90 0.0 1.0 0.00 0.00 0.00 93 1018.2
20260905111157 69 41 1.0 1.0 0.00 0.00 0.00 93 1018.2
20260905110312 69 85 0.0 0.0 0.00 0.00 0.00 94 1017.9
20260905105857 68 352 0.0 0.0 0.00 0.00 0.00 95 1017.9
20260905104939 68 117 1.0 2.0 0.00 0.00 0.00 95 1017.9
20260905104523 67 104 1.0 2.0 0.00 0.00 0.00 95 1017.9
20260905104107 67 148 0.0 1.0 0.00 0.00 0.00 95 1017.9
20260905103651 67 103 0.0 1.0 0.00 0.00 0.00 95 1018.2
20260905103220 67 96 1.0 2.0 0.00 0.00 0.00 95 1018.2
20260905102334 67 169 0.0 0.0 0.00 0.00 0.00 95 1017.9
20260905101450 68 131 0.0 0.0 0.00 0.00 0.00 95 1017.9
20260905100047 68 59 0.0 1.0 0.00 0.00 0.00 95 1017.9
20260905095630 67 107 0.0 0.0 0.00 0.00 0.00 95 1017.9
20260905095211 67 96 0.0 0.0 0.00 0.00 0.00 95 1017.9
20260905094739 67 269 0.0 0.0 0.00 0.00 0.00 95 1017.9
20260905094309 67 105 0.0 0.0 0.00 0.00 0.00 95 1017.9
20260905093852 67 252 0.0 0.0 0.00 0.00 0.00 95 1017.9
20260905093437 67 198 0.0 0.0 0.00 0.00 0.00 95 1017.9
20260905093021 67 116 0.0 0.0 0.00 0.00 0.00 95 1017.9
20260905092604 67 251 0.0 0.0 0.00 0.00 0.00 95 1017.6
20260905092133 67 252 0.0 0.0 0.00 0.00 0.00 95 1017.6
20260905091703 67 291 0.0 0.0 0.00 0.00 0.00 95 1017.6